MNE101 LDDU-LYPG

Flight info

Callsign MNE101
Flight time N/A
Altitude 17000
Route MOKUN2V/29 MOKUN DCT TAZ
Aircraft C25C/M-SDE2E3FGHRWXY/LB1

Departure

Time 2026-04-27 17:14
Airport Dubrovnik Ruđer Bošković Airport (LDDU)

Arrival

Time N/A
Airport Podgorica Airport / Podgorica Golubovci Airbase (LYPG)
Time Latitude Longitude Altitude Speed Heading
2026-04-27 17:14 42.83106 18.42881 24123 ft 776 kts 256°
2026-04-27 17:14 42.84320 18.36026 25930 ft 778 kts 301°
2026-04-27 17:14 42.87721 18.30047 25032 ft 818 kts 316°
2026-04-27 17:15 42.92199 18.25213 24980 ft 801 kts 345°
2026-04-27 17:15 42.97189 18.27087 30023 ft 769 kts 27°
2026-04-27 17:15 43.01824 18.30834 32047 ft 779 kts 29°
2026-04-27 17:15 43.06516 18.34595 33867 ft 785 kts 29°
2026-04-27 17:16 43.11252 18.38448 34316 ft 800 kts 28°
2026-04-27 17:16 43.16216 18.42007 34482 ft 809 kts 25°
2026-04-27 17:16 43.21317 18.45349 34710 ft 816 kts 24°
2026-04-27 17:16 43.26502 18.48555 34858 ft 819 kts 19°
2026-04-27 17:17 43.31981 18.50793 34604 ft 825 kts 12°
2026-04-27 17:17 43.36995 18.52599 28113 ft 725 kts 11°
2026-04-27 17:17 43.42590 18.53047 21500 ft 829 kts 357°
2026-04-27 17:18 43.53176 18.52307 19176 ft 758 kts 357°
2026-04-27 17:18 43.58601 18.52000 18998 ft 782 kts 356°
2026-04-27 17:18 43.64075 18.51673 18420 ft 803 kts 357°
2026-04-27 17:18 43.69107 18.51439 17130 ft 654 kts 358°
2026-04-27 17:19 43.73322 18.51291 16049 ft 569 kts 356°
2026-04-27 17:19 43.77072 18.51240 15815 ft 504 kts 359°
2026-04-27 17:19 43.80364 18.51023 15058 ft 449 kts 354°
2026-04-27 17:19 43.83312 18.50770 14779 ft 398 kts 356°
2026-04-27 17:20 43.85859 18.50492 14974 ft 338 kts 340°
2026-04-27 17:20 43.87920 18.48416 13626 ft 397 kts 310°
2026-04-27 17:20 43.89315 18.45048 12211 ft 391 kts 291°
2026-04-27 17:20 43.90140 18.41951 11469 ft 299 kts 289°
2026-04-27 17:21 43.90887 18.39086 10765 ft 320 kts 288°
2026-04-27 17:21 43.91722 18.35956 10542 ft 385 kts 290°
2026-04-27 17:21 43.92620 18.32591 10436 ft 302 kts 291°
2026-04-27 17:21 43.93469 18.29799 10434 ft 322 kts 292°
2026-04-27 17:22 43.94375 18.26917 10377 ft 308 kts 293°
2026-04-27 17:22 43.95237 18.24331 10090 ft 278 kts 296°
2026-04-27 17:22 43.95946 18.21793 9758 ft 298 kts 284°
2026-04-27 17:22 43.96404 18.18949 9518 ft 296 kts 283°
2026-04-27 17:23 43.96899 18.16277 9182 ft 290 kts 283°
2026-04-27 17:23 43.97400 18.13808 8798 ft 271 kts 283°
2026-04-27 17:23 43.97842 18.11219 8505 ft 267 kts 283°
2026-04-27 17:23 43.98290 18.08964 8343 ft 225 kts 285°
2026-04-27 17:24 43.98660 18.06730 7888 ft 236 kts 283°
2026-04-27 17:24 43.99090 18.04539 7610 ft 238 kts 285°
2026-04-27 17:24 43.99509 18.02340 7399 ft 228 kts 280°
2026-04-27 17:24 43.99220 18.00093 7036 ft 263 kts 237°
2026-04-27 17:25 43.98071 17.98394 6698 ft 218 kts 211°
2026-04-27 17:25 43.96547 17.97876 6362 ft 234 kts 174°
2026-04-27 17:25 43.95309 17.99072 5902 ft 237 kts 118°
2026-04-27 17:25 43.94641 18.00709 6131 ft 198 kts 126°
2026-04-27 17:26 43.93766 18.02500 6233 ft 239 kts 120°
2026-04-27 17:26 43.92970 18.04390 6287 ft 234 kts 116°
2026-04-27 17:26 43.92279 18.06513 5832 ft 234 kts 112°
2026-04-27 17:26 43.91498 18.08587 5464 ft 251 kts 117°
2026-04-27 17:27 43.90693 18.10556 5153 ft 230 kts 117°
2026-04-27 17:27 43.89926 18.12577 4741 ft 245 kts 117°
2026-04-27 17:27 43.89219 18.14574 4119 ft 193 kts 109°
2026-04-27 17:27 43.88748 18.16188 3826 ft 182 kts 114°
2026-04-27 17:28 43.88066 18.17594 3631 ft 180 kts 126°
2026-04-27 17:28 43.87414 18.18830 3849 ft 127 kts 127°